Regional Weather Roundup
Issued by NWS Cleveland, OH

Home | Current Version | Previous Version | Graphics & Text | Print | Product List | Glossary On
Versions: 1 2 3 4 5 6 7 8 9 10 11 12 13 14 15 16 17 18 19 20 21 22 23 24 25 26 27 28 29 30 31 32 33 34 35 36 37 38 39 40 41 42 43 44 45 46 47 48 49 50
000
ASUS41 KCLE 210202
RWRCLE
OHIO REGIONAL WEATHER ROUNDUP
NATIONAL WEATHER SERVICE CLEVELAND, OH
1000 PM EDT MON OCT 20 2014

NOTE: "FAIR" INDICATES FEW OR NO CLOUDS BELOW 12,000 FEET WITH NO
SIGNIFICANT WEATHER AND/OR OBSTRUCTIONS TO VISIBILITY.

OHZ001>008-015>018-024>027-034-035-043-044-210300-
   NORTHWEST OHIO

CITY           SKY/WX    TMP DP  RH WIND       PRES   REMARKS
DEFIANCE       CLOUDY    54  49  83 NW7       29.89R
FINDLAY        MOCLDY    51  49  92 W5        29.87R FOG
TOLEDO EXPRESS CLOUDY    51  49  92 W8        29.86R
TOLEDO EXEC    CLOUDY    53  50  89 W7        29.87R
LIMA           CLOUDY    54  51  90 NW6       29.88R
$$

OHZ009>014-019>023-028>033-038-089-210300-
   NORTHEAST OHIO

CITY           SKY/WX    TMP DP  RH WIND       PRES   REMARKS
CLE-HOPKINS    LGT RAIN  52  50  93 SW8       29.87S FOG
CLE-LAKEFRONT  RAIN      53  51  93 SW9       29.84S
CUY CO. ARPT   LGT RAIN  54  54 100 W12       29.85S
LORAIN-ELYRIA  CLOUDY    51  51 100 SW5       29.86R FOG
ASHTABULA      LGT RAIN  50  48  93 S9        29.84S
AKRON-CANTON   LGT RAIN  51  48  89 SW8       29.86S FOG
WOOSTER        LGT RAIN  52  49  89 SW6       29.87S
MANSFIELD      CLOUDY    51  51 100 SW6       29.86S
YOUNGSTOWN     LGT RAIN  50  47  89 S6        29.86S
$$

OHZ042-051>053-060>062-070>072-077>081-210300-
  SOUTHWEST OHIO

CITY           SKY/WX    TMP DP  RH WIND       PRES   REMARKS
CINC-COVINGTON PTCLDY    57  50  77 SW6       29.90R
CINC-LUNKEN    FAIR      51  50  96 CALM      29.90R
HAMILTON       LGT RAIN  57  53  86 W6        29.90R
DAYTON         MOCLDY    55  51  86 NW6       29.89R
WRIGHT-PAT AFB MOCLDY    51  50  96 W3        29.88R
DAYTON GENERAL MOCLDY    56  53  90 CALM      29.88S
WILMINGTON     LGT RAIN  52  49  89 CALM      29.89R
$$

OHZ036-037-039>041-045>050-054>059-063>069-073>076-082>088-210300-
  CENTRAL AND SOUTHEAST OHIO

CITY           SKY/WX    TMP DP  RH WIND       PRES   REMARKS
COLUMBUS       MOCLDY    52  50  93 CALM      29.88R
OSU AIRPORT    CLOUDY    53  50  89 SW3       29.87S
BOLTON FIELD   MOCLDY    49  49 100 CALM      29.89R
RICKENBACK AFB NOT AVBL
NEWARK         LGT RAIN  52  49  89 SW5       29.87R
MARION         CLOUDY    53  50  89 SW6       29.87R
LANCASTER      MOCLDY    50  47  89 SW3       29.88S
ZANESVILLE     RAIN      50  48  93 NE6       29.88S
NEW PHILLY     CLOUDY    52  48  86 S5        29.88S
$$



USA.gov is the U.S. government's official web portal to all federal, state and local government web resources and services.